Sigfox identifier Datetime Temperature Humidity SNR
00393A0E 2018-10-09 09:11:17 20.2 40 14.8
00393A0E 2018-10-09 08:09:55 20.2 39 14.6
00393A0E 2018-10-09 07:08:37 20.2 39 14.8
00393A0E 2018-10-09 06:07:22 20.2 39 15
00393A0E 2018-10-09 05:06:02 20.3 39 15.1
00393A0E 2018-10-09 02:02:03 20.2 38 14.9
00393A0E 2018-10-09 01:00:44 20.2 38 14.9
00393A0E 2018-10-08 23:59:27 20.2 38 15
00393A0E 2018-10-08 22:58:10 20.2 38 15
00393A0E 2018-10-08 21:56:51 20.2 38 14.4
00393A0E 2018-10-08 20:55:30 20.2 38 14.4
00393A0E 2018-10-08 19:54:12 20.2 38 13.9
00393A0E 2018-10-08 18:52:56 20.2 37 13.8
00393A0E 2018-10-08 17:51:41 20.2 37 13.7
00393A0E 2018-10-08 16:50:26 20 37 13.8
00393A0E 2018-10-08 14:47:53 20 37 14.1
00393A0E 2018-10-08 11:44:03 19.7 35 14.3
00393A0E 2018-10-08 10:42:45 19.6 35 14.4
00393A0E 2018-10-08 08:40:06 19.7 36 14.1
00393A0E 2018-10-08 06:37:29 19.8 37 13.9
00393A0E 2018-10-08 05:36:03 19.8 37 14
00393A0E 2018-10-08 04:34:45 19.8 37 13.8
00393A0E 2018-10-08 03:33:24 19.8 38 13.6
00393A0E 2018-10-08 02:32:04 19.9 38 13.6
00393A0E 2018-10-08 01:30:42 19.9 38 13.8
00393A0E 2018-10-08 00:29:22 19.9 38 13.6
00393A0E 2018-10-07 23:28:04 20 39 13.3
00393A0E 2018-10-07 22:26:38 20 39 13.2
00393A0E 2018-10-07 21:25:20 20 39 13.1
00393A0E 2018-10-07 20:23:59 20 39 13.2
00393A0E 2018-10-07 19:22:38 20 39 13.3
00393A0E 2018-10-07 17:20:02 20 39 13.1
00393A0E 2018-10-07 16:18:41 20 39 13.2
00393A0E 2018-10-07 15:17:21 20 39 13.4
00393A0E 2018-10-07 14:16:00 20.1 39 13.4
00393A0E 2018-10-07 13:14:38 20 39 13.4
00393A0E 2018-10-07 12:13:19 20.2 39 13.2
00393A0E 2018-10-07 11:11:58 20.2 39 13.4
00393A0E 2018-10-07 10:10:39 20.2 39 13.4
00393A0E 2018-10-07 09:09:16 20.2 40 13.5
00393A0E 2018-10-07 08:07:58 20.2 40 13.1
00393A0E 2018-10-07 07:06:42 20.2 40 13.2
00393A0E 2018-10-07 06:05:24 20.2 40 12.9
00393A0E 2018-10-07 05:04:06 20.2 40 12.9
00393A0E 2018-10-07 04:02:48 20.3 40 12.9
00393A0E 2018-10-07 03:01:36 20.2 40 12.8
00393A0E 2018-10-07 02:00:16 20.3 40 12.9
00393A0E 2018-10-07 00:58:57 20.4 40 13.1
00393A0E 2018-10-06 22:56:16 20.4 40 13.1
00393A0E 2018-10-06 21:54:59 20.4 40 13.4
00393A0E 2018-10-06 20:53:38 20.4 40 13.3
00393A0E 2018-10-06 18:50:57 20.4 40 13.3
00393A0E 2018-10-06 16:48:18 20.4 40 13.4
00393A0E 2018-10-06 15:46:56 20.4 41 13.3
00393A0E 2018-10-06 13:44:11 20.4 41 13.1
00393A0E 2018-10-06 12:42:52 20.4 41 13
00393A0E 2018-10-06 11:41:30 20.4 41 12.7
00393A0E 2018-10-06 10:40:09 20.4 41 12.3
00393A0E 2018-10-06 09:38:49 20.5 41 12
00393A0E 2018-10-06 08:37:26 20.5 41 11.9
00393A0E 2018-10-06 07:36:04 20.6 41 11.9
00393A0E 2018-10-06 06:34:43 20.6 41 12
00393A0E 2018-10-06 05:33:22 20.6 42 11.6
00393A0E 2018-10-06 04:32:00 20.6 42 12
00393A0E 2018-10-06 03:30:37 20.6 42 12.8
00393A0E 2018-10-06 02:29:16 20.7 42 12.9
00393A0E 2018-10-06 01:27:55 20.6 42 12.7
00393A0E 2018-10-06 00:26:34 20.8 42 12.8
00393A0E 2018-10-05 23:25:13 20.8 43 12.9
00393A0E 2018-10-05 22:23:52 20.8 43 13.1
00393A0E 2018-10-05 21:22:33 20.8 43 13.2
00393A0E 2018-10-05 20:21:13 20.8 44 13.2
00393A0E 2018-10-05 19:19:51 20.8 44 13.1
00393A0E 2018-10-05 18:18:29 20.8 44 13.2
00393A0E 2018-10-05 17:17:11 20.9 44 12.7
00393A0E 2018-10-05 16:15:53 20.9 44 12.8
00393A0E 2018-10-05 15:14:37 20.8 44 12.9
00393A0E 2018-10-05 12:10:40 20.6 39 13
00393A0E 2018-10-05 11:09:23 20.4 37 13.2
00393A0E 2018-10-05 10:08:07 20.4 35 13.6
00393A0E 2018-10-05 08:05:32 20.2 32 13.9
00393A0E 2018-10-05 07:04:14 20.2 31 14.3
00393A0E 2018-10-05 04:00:19 20.4 31 14.8
00393A0E 2018-10-05 01:57:43 20.4 32 15.4
00393A0E 2018-10-04 18:48:33 20.5 31 16
00393A0E 2018-10-04 16:45:55 20.4 31 16.8
00393A0E 2018-10-04 14:43:15 20.3 32 17.8
00393A0E 2018-10-04 12:40:34 20.3 33 19.3
00393A0E 2018-10-04 11:39:13 20.4 33 20.8
00393A0E 2018-10-04 09:36:28 20.2 40 0